Location: Владивосток
(43.1151°N, 131.8856°E)
Time: 00:44:44
(UTC+10:00)

NOAA 19 - Visible Passes

Search period start: 27 June 2022 00:00
Search period end: 07 July 2022 00:00
Orbit: 840 x 861 km, 99.1° (Epoch: 26 June)

Date Brightness Start Highest point End Pass type
(mag) Time Alt. Az. Time Alt. Az. Time Alt. Az.
27 Jun 7.5 21:35:57 10° SW 21:40:08 22° W 21:44:21 10° NW visible
28 Jun 7.2 21:23:29 10° SSW 21:28:09 28° W 21:32:50 10° NW visible
03 Jul 8.0 22:07:55 10° WSW 22:09:54 12° W 22:11:52 10° WNW visible
04 Jul 7.8 21:54:39 10° SW 21:57:50 16° W 22:01:02 10° NW visible
05 Jul 7.7 21:41:52 10° SW 21:45:49 20° W 21:49:46 10° NW visible
06 Jul 7.3 21:29:20 10° SSW 21:33:49 25° W 21:38:19 10° NW visible
